Location: Bartshausen
(51.8454°N, 9.8167°E)
Time: 03:15:12
(UTC+00:00)

Cosmos 2237 Rocket - Pass Details

Date: 08 November 2025
Orbit: 835 x 847 km, 71.0° (Epoch: 15 December)

Event Time Altitude Azimuth Distance (km) Brightness Sun altitude
Rises 05:16:14 0° 212° (SSW) 3,393 5.1 -11.2°
Reaches altitude 10° 05:18:40 10° 214° (SW) 2,460 4.4 -10.9°
Maximum altitude 05:24:20 79° 301° (WNW) 863 2.2 -10.0°
Drops below altitude 10° 05:30:01 10° 29° (NNE) 2,467 4.8 -9.2°
Sets 05:32:28 0° 31° (NNE) 3,404 5.6 -8.8°
